Voltar ao catálogo

COSMOS 1680

AtivoNavegaçãoLEO
NORAD 16011·PAYLOAD·🇷🇺 Russia

Lançado Sep 4, 1985 de Plesetsk Cosmodrome

Loading…

Próximas Passagens (próximas 24 horas)

TLE

AtualizadoSource: Space-Track

Época: Sep 14, 2026, 21:34 UTC

1 16011U 85079A   26257.89887807  .00000089  00000-0  41185-4 0  9995
2 16011  74.0541 160.7838 0015775 309.4400  50.5355 14.34179574144669

Acompanhe COSMOS 1680 em tempo real com AllMySat

Download on the App Store